This is the latest recevied weather packets stored in our database for station/object SP1BMW-13. If no packets are shown the sender has not sent any weather packets the latest 10 day(s).
| Time | Temp. | Humidity | Pressure | Rain* | Wind** | Luminosity | Snow |
|---|---|---|---|---|---|---|---|
| 1778258581 | 13.33° C | 54% | 1019.1 hPa | 0 mm | 0 m/s | 41 W/m² | - |
| 1778258521 | 13.89° C | 53% | 1019.2 hPa | 0 mm | 0 m/s | 42 W/m² | - |
| 1778258461 | 13.89° C | 53% | 1019.1 hPa | 0 mm | 0 m/s | 43 W/m² | - |
| 1778258401 | 13.89° C | 52% | 1019.3 hPa | 0 mm | 0.89 m/s, 42° | 45 W/m² | - |
| 1778258341 | 13.89° C | 52% | 1019.1 hPa | 0 mm | 0.45 m/s, 46° | 46 W/m² | - |
| 1778258281 | 13.89° C | 54% | 1019.2 hPa | 0 mm | 0 m/s | 47 W/m² | - |
| 1778258221 | 13.89° C | 55% | 1019.1 hPa | 0 mm | 0.45 m/s, 62° | 48 W/m² | - |
| 1778258161 | 13.89° C | 54% | 1019 hPa | 0 mm | 0 m/s | 49 W/m² | - |
| 1778258101 | 13.89° C | 55% | 1019.1 hPa | 0 mm | 0 m/s | 50 W/m² | - |
| 1778258041 | 13.89° C | 55% | 1019.1 hPa | 0 mm | 0 m/s | 51 W/m² | - |
| 1778257981 | 13.89° C | 54% | 1019 hPa | 0 mm | 0.45 m/s, 24° | 53 W/m² | - |
| 1778257921 | 13.89° C | 53% | 1019.2 hPa | 0 mm | 0 m/s | 54 W/m² | - |
| 1778257861 | 13.89° C | 52% | 1019.1 hPa | 0 mm | 0 m/s | 55 W/m² | - |
| 1778257801 | 13.89° C | 52% | 1019.2 hPa | 0 mm | 0 m/s | 57 W/m² | - |
| 1778257741 | 13.89° C | 51% | 1018.9 hPa | 0 mm | 0.45 m/s, 27° | 58 W/m² | - |
| 1778257681 | 13.89° C | 52% | 1019.1 hPa | 0 mm | 1.34 m/s, 20° | 60 W/m² | - |
| 1778257622 | 13.89° C | 52% | 1019.2 hPa | 0 mm | 1.34 m/s, 326° | 62 W/m² | - |
| 1778257561 | 13.89° C | 51% | 1019.2 hPa | 0 mm | 0.89 m/s, 338° | 66 W/m² | - |
| 1778257501 | 13.89° C | 51% | 1019.1 hPa | 0 mm | 2.24 m/s, 327° | 69 W/m² | - |
| 1778257441 | 13.89° C | 51% | 1019.3 hPa | 0 mm | 1.79 m/s, 340° | 72 W/m² | - |
| 1778257381 | 13.89° C | 52% | 1019.1 hPa | 0 mm | 0.89 m/s, 330° | 73 W/m² | - |
| 1778257321 | 13.89° C | 51% | 1019.2 hPa | 0 mm | 0.45 m/s, 306° | 75 W/m² | - |
| 1778257261 | 13.89° C | 50% | 1019.1 hPa | 0 mm | 0.45 m/s, 58° | 77 W/m² | - |
| 1778257201 | 13.89° C | 51% | 1019.2 hPa | 0 mm | 1.34 m/s, 26° | 79 W/m² | - |
| 1778257141 | 13.89° C | 51% | 1019.1 hPa | 0 mm | 0 m/s | 81 W/m² | - |
* Rain latest hour (hover to see other rain measurements)
** Current wind speed in m/s (hover to see current wind gust speed)